Regional Weather Roundup
Issued by NWS

Home | Current Version | Previous Version | Text Only | Print | Product List | Glossary Off
Versions: 1 2 3 4 5 6 7 8 9 10 11 12 13 14 15 16 17 18 19 20 21 22 23 24 25 26 27 28 29 30 31 32 33 34 35 36 37 38 39 40 41 42 43 44 45 46 47 48 49 50

000
ASUS43 KLMK 182310
RWRKY
KENTUCKY REGIONAL WEATHER ROUNDUP
NATIONAL WEATHER SERVICE LOUISVILLE KY
700 PM EDT FRI AUG 18 2017

NOTE "FAIR" INDICATES FEW OR NO CLOUDS BELOW 12,000 FEET
WITH NO SIGNIFICANT WEATHER AND/OR OBSTRUCTIONS TO VISIBILITY.

KYZ001>023-026-027-061>063-070>075-190000-
WESTERN AND SOUTH CENTRAL KENTUCKY

CITY           SKY/WX    TMP DP  RH WIND       PRES   REMARKS
PADUCAH        SUNNY     87  64  46 W5        29.94S
HENDERSON      SUNNY     83  67  58 W6        29.95S
OWENSBORO      SUNNY     85  66  53 W7        29.95S
HOPKINSVILLE   SUNNY     85  64  50 W8        29.96S
BOWLING GREEN  MOSUNNY   85  63  47 VRB5      29.96R
GLASGOW        SUNNY     83  62  48 W5        29.97R
$$

KYZ024-025-028>034-038-045-046-053-190000-
NORTH CENTRAL KENTUCKY

CITY           SKY/WX    TMP DP  RH WIND       PRES   REMARKS
LOUISVILLE/SDF MOSUNNY   85  63  47 W9        29.92S
LOUISVILLE/LOU SUNNY     85  65  51 W7        29.92S
FORT KNOX      SUNNY     83  64  52 W8        29.93S
$$

KYZ035>037-039>044-047>052-055>060-089>105-190000-
NORTHEAST KENTUCKY

CITY           SKY/WX    TMP DP  RH WIND       PRES   REMARKS
LEXINGTON      MOSUNNY   82  63  52 W9        29.95R
COVINGTON      MOSUNNY   82  64  54 W12       29.91S
FRANKFORT      SUNNY     84  60  44 NW8       29.92S
$$

KYZ054-064>069-076>088-106>120-190000-
SOUTHEAST KENTUCKY

CITY           SKY/WX    TMP DP  RH WIND       PRES   REMARKS
JACKSON        SUNNY     81  65  58 W6        29.96S
LONDON         MOSUNNY   81  63  54 W8        29.98R
SOMERSET       SUNNY     81  59  47 W6        29.98S
MIDDLESBORO    SUNNY     83  65  54 W3        29.97S
MONTICELLO     CLEAR     81  69  67 W6        29.99S
$$





USA.gov is the U.S. government's official web portal to all federal, state and local government web resources and services.